Time,TemperatureF,DewpointF,PressureIn,WindDirection,WindDirectionDegrees,WindSpeedMPH,WindSpeedGustMPH,Humidity,HourlyPrecipIn,Conditions,Clouds,dailyrainin,SoftwareType,DateUTC
2013-04-04 00:04:00,20.7,12.7,30.12,SE,135,2.0,2.0,71,0.00,,,0.24,meteohub,2013-04-04 06:04:00,
2013-04-04 00:10:00,20.7,12.7,30.12,SE,135,2.0,2.0,71,0.00,,,0.00,meteohub,2013-04-04 06:10:00,
2013-04-04 00:15:00,20.5,12.6,30.12,SE,135,2.0,3.0,71,0.00,,,0.00,meteohub,2013-04-04 06:15:00,
2013-04-04 00:20:00,20.3,12.4,30.13,SE,135,2.0,3.0,71,0.00,,,0.00,meteohub,2013-04-04 06:20:00,
2013-04-04 00:25:00,20.3,12.7,30.12,East,90,1.0,4.0,72,0.00,,,0.00,meteohub,2013-04-04 06:25:00,
2013-04-04 00:30:00,20.3,12.7,30.13,SE,135,3.0,4.0,72,0.00,,,0.00,meteohub,2013-04-04 06:30:00,
2013-04-04 00:35:00,20.1,12.6,30.13,SE,135,2.0,4.0,72,0.00,,,0.00,meteohub,2013-04-04 06:35:00,
2013-04-04 00:41:00,20.1,12.6,30.13,SE,135,0.0,3.0,72,0.00,,,0.00,meteohub,2013-04-04 06:41:00,
2013-04-04 00:46:00,20.1,12.6,30.12,NW,315,1.0,3.0,72,0.00,,,0.00,meteohub,2013-04-04 06:46:00,
2013-04-04 00:52:00,19.8,12.2,30.12,SE,135,2.0,4.0,72,0.00,,,0.00,meteohub,2013-04-04 06:52:00,
2013-04-04 00:57:00,19.8,12.2,30.12,SE,135,3.0,4.0,72,0.00,,,0.00,meteohub,2013-04-04 06:57:00,
2013-04-04 01:02:00,19.6,12.0,30.12,West,270,1.0,4.0,72,0.00,,,0.00,meteohub,2013-04-04 07:02:00,
2013-04-04 01:07:00,19.6,12.0,30.12,SE,135,1.0,3.0,72,0.00,,,0.00,meteohub,2013-04-04 07:07:00,
2013-04-04 01:12:00,19.6,12.0,30.12,SE,135,3.0,3.0,72,0.00,,,0.00,meteohub,2013-04-04 07:12:00,
2013-04-04 01:17:00,19.4,11.8,30.12,SE,135,3.0,3.0,72,0.00,,,0.00,meteohub,2013-04-04 07:17:00,
2013-04-04 01:22:00,19.4,11.8,30.12,SE,135,2.0,3.0,72,0.00,,,0.00,meteohub,2013-04-04 07:22:00,
2013-04-04 01:27:00,19.4,11.8,30.12,SE,135,0.0,3.0,72,0.00,,,0.00,meteohub,2013-04-04 07:27:00,
2013-04-04 01:32:00,19.2,10.4,30.12,SE,135,2.0,3.0,68,0.00,,,0.00,meteohub,2013-04-04 07:32:00,
2013-04-04 01:37:00,19.2,10.4,30.12,SE,135,2.0,3.0,68,0.00,,,0.00,meteohub,2013-04-04 07:37:00,
2013-04-04 01:43:00,19.2,10.4,30.12,SE,135,4.0,4.0,68,0.00,,,0.00,meteohub,2013-04-04 07:43:00,
2013-04-04 01:48:00,19.2,10.4,30.12,SE,135,2.0,4.0,68,0.00,,,0.00,meteohub,2013-04-04 07:48:00,
2013-04-04 01:53:00,19.2,10.4,30.12,SE,135,2.0,4.0,68,0.00,,,0.00,meteohub,2013-04-04 07:53:00,
2013-04-04 01:58:00,19.4,11.8,30.12,SE,135,0.0,4.0,72,0.00,,,0.00,meteohub,2013-04-04 07:58:00,
2013-04-04 02:03:00,19.4,11.8,30.12,SE,135,2.0,4.0,72,0.00,,,0.00,meteohub,2013-04-04 08:03:00,
2013-04-04 02:09:00,19.6,12.4,30.12,SE,135,2.0,3.0,73,0.00,,,0.00,meteohub,2013-04-04 08:09:00,
2013-04-04 02:14:00,19.8,12.6,30.13,West,270,2.0,4.0,73,0.00,,,0.00,meteohub,2013-04-04 08:14:00,
2013-04-04 02:19:00,19.8,12.6,30.13,SE,135,2.0,4.0,73,0.00,,,0.00,meteohub,2013-04-04 08:19:00,
2013-04-04 02:24:00,19.9,12.7,30.13,West,270,2.0,4.0,73,0.00,,,0.00,meteohub,2013-04-04 08:24:00,
2013-04-04 02:30:00,20.1,12.9,30.13,West,270,0.0,2.0,73,0.00,,,0.00,meteohub,2013-04-04 08:30:00,
2013-04-04 02:35:00,20.3,13.1,30.13,SE,135,2.0,2.0,73,0.00,,,0.00,meteohub,2013-04-04 08:35:00,
2013-04-04 02:40:00,20.5,13.5,30.12,SE,135,1.0,2.0,74,0.00,,,0.00,meteohub,2013-04-04 08:40:00,
2013-04-04 02:45:00,20.5,13.5,30.12,SE,135,0.0,2.0,74,0.00,,,0.00,meteohub,2013-04-04 08:45:00,
2013-04-04 02:50:00,20.5,13.3,30.12,SE,135,2.0,2.0,73,0.00,,,0.00,meteohub,2013-04-04 08:50:00,
2013-04-04 02:55:00,20.5,13.3,30.13,North,0,0.0,2.0,73,0.00,,,0.00,meteohub,2013-04-04 08:55:00,
2013-04-04 03:00:00,20.7,13.5,30.12,SE,135,1.0,2.0,73,0.00,,,0.00,meteohub,2013-04-04 09:00:00,
2013-04-04 03:06:00,20.7,13.5,30.12,SE,135,2.0,2.0,73,0.00,,,0.00,meteohub,2013-04-04 09:06:00,
2013-04-04 03:11:00,20.8,13.6,30.12,North,0,0.0,2.0,73,0.00,,,0.00,meteohub,2013-04-04 09:11:00,
2013-04-04 03:16:00,21.2,13.6,30.12,West,270,2.0,2.0,72,0.00,,,0.00,meteohub,2013-04-04 09:16:00,
2013-04-04 03:22:00,21.4,14.0,30.12,NW,315,3.0,4.0,73,0.00,,,0.00,meteohub,2013-04-04 09:22:00,
2013-04-04 03:27:00,21.4,13.8,30.12,NW,315,1.0,4.0,72,0.00,,,0.00,meteohub,2013-04-04 09:27:00,
2013-04-04 03:32:00,21.4,13.8,30.13,West,270,3.0,4.0,72,0.00,,,0.00,meteohub,2013-04-04 09:32:00,
2013-04-04 03:37:00,21.4,13.8,30.12,West,270,0.0,4.0,72,0.00,,,0.00,meteohub,2013-04-04 09:37:00,
2013-04-04 03:43:00,21.4,13.8,30.12,West,270,3.0,3.0,72,0.00,,,0.00,meteohub,2013-04-04 09:43:00,
2013-04-04 03:48:00,21.4,13.8,30.12,SW,225,0.0,3.0,72,0.00,,,0.00,meteohub,2013-04-04 09:48:00,
2013-04-04 03:53:00,21.4,13.8,30.12,SE,135,1.0,3.0,72,0.00,,,0.00,meteohub,2013-04-04 09:53:00,
2013-04-04 03:59:00,21.2,13.6,30.12,SE,135,2.0,3.0,72,0.00,,,0.00,meteohub,2013-04-04 09:59:00,
2013-04-04 04:04:00,21.2,13.6,30.12,SE,135,2.0,2.0,72,0.00,,,0.00,meteohub,2013-04-04 10:04:00,
2013-04-04 04:09:00,21.0,13.8,30.12,SE,135,1.0,2.0,73,0.00,,,0.00,meteohub,2013-04-04 10:09:00,
2013-04-04 04:14:00,20.8,13.6,30.12,SE,135,0.0,2.0,73,0.00,,,0.00,meteohub,2013-04-04 10:14:00,
2013-04-04 04:19:00,20.8,13.6,30.12,SE,135,3.0,3.0,73,0.00,,,0.00,meteohub,2013-04-04 10:19:00,
2013-04-04 04:25:00,20.7,13.5,30.12,SE,135,0.0,3.0,73,0.00,,,0.00,meteohub,2013-04-04 10:25:00,
2013-04-04 04:30:00,20.7,13.5,30.13,SE,135,1.0,3.0,73,0.00,,,0.00,meteohub,2013-04-04 10:30:00,
2013-04-04 04:35:00,20.5,13.3,30.13,SE,135,2.0,2.0,73,0.00,,,0.00,meteohub,2013-04-04 10:35:00,
2013-04-04 04:40:00,20.3,12.7,30.12,SE,135,2.0,2.0,72,0.00,,,0.00,meteohub,2013-04-04 10:40:00,
2013-04-04 04:46:00,19.9,12.4,30.12,SE,135,2.0,4.0,72,0.00,,,0.00,meteohub,2013-04-04 10:46:00,
2013-04-04 04:51:00,19.9,12.7,30.12,SE,135,0.0,4.0,73,0.00,,,0.00,meteohub,2013-04-04 10:51:00,
2013-04-04 04:56:00,19.9,12.7,30.12,SE,135,2.0,4.0,73,0.00,,,0.00,meteohub,2013-04-04 10:56:00,
2013-04-04 05:01:00,19.6,12.4,30.12,SE,135,1.0,2.0,73,0.00,,,0.00,meteohub,2013-04-04 11:01:00,
2013-04-04 05:06:00,19.6,12.4,30.12,SE,135,4.0,4.0,73,0.00,,,0.00,meteohub,2013-04-04 11:06:00,
2013-04-04 05:12:00,19.4,12.2,30.12,SSE,158,2.0,4.0,73,0.00,,,0.00,meteohub,2013-04-04 11:12:00,
2013-04-04 05:17:00,19.4,12.2,30.12,SE,135,2.0,4.0,73,0.00,,,0.00,meteohub,2013-04-04 11:17:00,
2013-04-04 05:22:00,19.2,10.8,30.12,East,90,2.0,4.0,69,0.00,,,0.00,meteohub,2013-04-04 11:22:00,
2013-04-04 05:27:00,19.0,10.6,30.12,SE,135,2.0,3.0,69,0.00,,,0.00,meteohub,2013-04-04 11:27:00,
2013-04-04 05:32:00,19.0,10.6,30.12,SE,135,0.0,3.0,69,0.00,,,0.00,meteohub,2013-04-04 11:32:00,
2013-04-04 05:37:00,19.0,10.6,30.12,SE,135,2.0,3.0,69,0.00,,,0.00,meteohub,2013-04-04 11:37:00,
2013-04-04 05:42:00,19.0,10.6,30.12,SE,135,3.0,3.0,69,0.00,,,0.00,meteohub,2013-04-04 11:42:00,
2013-04-04 05:47:00,19.2,10.8,30.12,SE,135,1.0,3.0,69,0.00,,,0.00,meteohub,2013-04-04 11:47:00,
2013-04-04 05:53:00,19.0,10.9,30.12,East,90,2.0,3.0,70,0.00,,,0.00,meteohub,2013-04-04 11:53:00,
2013-04-04 05:58:00,19.2,11.1,30.12,South,180,2.0,4.0,70,0.00,,,0.00,meteohub,2013-04-04 11:58:00,
2013-04-04 06:03:00,19.2,11.1,30.12,SE,135,0.0,4.0,70,0.00,,,0.00,meteohub,2013-04-04 12:03:00,
2013-04-04 06:08:00,19.2,11.1,30.12,West,270,2.0,4.0,70,0.00,,,0.00,meteohub,2013-04-04 12:08:00,
2013-04-04 06:17:00,19.4,12.7,30.13,East,90,1.0,3.0,75,0.00,,,0.00,meteohub,2013-04-04 12:17:00,
2013-04-04 06:22:00,19.4,12.7,30.12,SE,135,4.0,4.0,75,0.00,,,0.00,meteohub,2013-04-04 12:22:00,
2013-04-04 06:27:00,19.4,12.7,30.12,SE,135,2.0,4.0,75,0.00,,,0.00,meteohub,2013-04-04 12:27:00,
2013-04-04 06:32:00,19.4,12.7,30.13,SE,135,0.0,4.0,75,0.00,,,0.00,meteohub,2013-04-04 12:32:00,
2013-04-04 06:37:00,19.2,11.3,30.12,SE,135,2.0,4.0,71,0.00,,,0.00,meteohub,2013-04-04 12:37:00,
2013-04-04 06:42:00,19.2,11.3,30.12,SE,135,2.0,4.0,71,0.00,,,0.00,meteohub,2013-04-04 12:42:00,
2013-04-04 06:47:00,19.2,11.3,30.12,SE,135,2.0,4.0,71,0.00,,,0.00,meteohub,2013-04-04 12:47:00,
2013-04-04 06:52:00,19.2,11.3,30.12,SE,135,1.0,4.0,71,0.00,,,0.00,meteohub,2013-04-04 12:52:00,
2013-04-04 06:58:00,19.2,11.3,30.12,SE,135,2.0,4.0,71,0.00,,,0.00,meteohub,2013-04-04 12:58:00,
2013-04-04 07:03:00,19.0,11.1,30.12,SE,135,1.0,4.0,71,0.00,,,0.00,meteohub,2013-04-04 13:03:00,
2013-04-04 07:09:00,19.0,11.1,30.13,SE,135,0.0,3.0,71,0.00,,,0.00,meteohub,2013-04-04 13:09:00,
2013-04-04 07:14:00,19.0,11.1,30.13,SE,135,3.0,3.0,71,0.00,,,0.00,meteohub,2013-04-04 13:14:00,
2013-04-04 07:19:00,19.0,11.1,30.13,SE,135,2.0,3.0,71,0.00,,,0.00,meteohub,2013-04-04 13:19:00,
2013-04-04 07:24:00,19.2,11.3,30.13,SE,135,2.0,3.0,71,0.00,,,0.00,meteohub,2013-04-04 13:24:00,
2013-04-04 07:30:00,19.2,11.7,30.13,SE,135,0.0,3.0,72,0.00,,,0.00,meteohub,2013-04-04 13:30:00,
2013-04-04 07:35:00,19.2,11.7,30.13,SE,135,0.0,3.0,72,0.00,,,0.00,meteohub,2013-04-04 13:35:00,
2013-04-04 07:40:00,19.2,11.3,30.13,West,270,1.0,3.0,71,0.00,,,0.00,meteohub,2013-04-04 13:40:00,
2013-04-04 07:45:00,19.2,11.3,30.13,SE,135,0.0,27.0,71,0.00,,,0.00,meteohub,2013-04-04 13:45:00,
2013-04-04 07:50:00,19.2,11.3,30.13,SE,135,2.0,27.0,71,0.00,,,0.00,meteohub,2013-04-04 13:50:00,
2013-04-04 07:55:00,19.2,11.3,30.13,SE,135,0.0,3.0,71,0.00,,,0.00,meteohub,2013-04-04 13:55:00,
2013-04-04 08:01:00,19.4,12.7,30.13,SE,135,0.0,3.0,75,0.00,,,0.00,meteohub,2013-04-04 14:01:00,
2013-04-04 08:06:00,19.4,12.7,30.13,SE,135,0.0,3.0,75,0.00,,,0.00,meteohub,2013-04-04 14:06:00,
2013-04-04 08:11:00,19.8,13.5,30.13,SE,135,2.0,3.0,76,0.00,,,0.00,meteohub,2013-04-04 14:11:00,
2013-04-04 08:17:00,20.1,13.8,30.13,East,90,1.0,2.0,76,0.00,,,0.00,meteohub,2013-04-04 14:17:00,
2013-04-04 08:22:00,20.3,14.0,30.13,SE,135,3.0,3.0,76,0.00,,,0.00,meteohub,2013-04-04 14:22:00,
2013-04-04 08:27:00,20.7,14.5,30.13,SE,135,2.0,3.0,77,0.00,,,0.00,meteohub,2013-04-04 14:27:00,
2013-04-04 08:32:00,21.0,14.9,30.13,East,90,2.0,3.0,77,0.00,,,0.00,meteohub,2013-04-04 14:32:00,
2013-04-04 08:37:00,21.4,15.1,30.13,SE,135,2.0,3.0,76,0.00,,,0.00,meteohub,2013-04-04 14:37:00,
2013-04-04 08:42:00,21.7,15.3,30.13,SE,135,2.0,3.0,76,0.00,,,0.00,meteohub,2013-04-04 14:42:00,
2013-04-04 08:48:00,22.1,15.6,30.13,SE,135,2.0,3.0,76,0.00,,,0.00,meteohub,2013-04-04 14:48:00,
2013-04-04 08:53:00,22.6,16.2,30.13,SE,135,2.0,3.0,76,0.00,,,0.00,meteohub,2013-04-04 14:53:00,
2013-04-04 08:58:00,23.0,16.3,30.13,SE,135,2.0,3.0,75,0.00,,,0.00,meteohub,2013-04-04 14:58:00,
2013-04-04 09:03:00,23.5,16.7,30.13,SE,135,2.0,3.0,75,0.00,,,0.00,meteohub,2013-04-04 15:03:00,
2013-04-04 09:09:00,24.1,17.2,30.13,South,180,2.0,4.0,75,0.00,,,0.00,meteohub,2013-04-04 15:09:00,
2013-04-04 09:14:00,24.6,17.6,30.13,South,180,2.0,4.0,74,0.00,,,0.00,meteohub,2013-04-04 15:14:00,
2013-04-04 09:19:00,25.3,18.0,30.13,SE,135,1.0,2.0,73,0.00,,,0.00,meteohub,2013-04-04 15:19:00,
2013-04-04 09:24:00,26.2,18.9,30.13,West,270,1.0,2.0,73,0.00,,,0.00,meteohub,2013-04-04 15:24:00,
2013-04-04 09:29:00,27.0,18.9,30.13,SE,135,2.0,2.0,71,0.00,,,0.00,meteohub,2013-04-04 15:29:00,
2013-04-04 09:35:00,28.0,19.6,30.13,North,0,1.0,2.0,70,0.00,,,0.00,meteohub,2013-04-04 15:35:00,
2013-04-04 09:40:00,28.9,21.4,30.13,SW,225,4.0,5.0,73,0.00,,,0.00,meteohub,2013-04-04 15:40:00,
2013-04-04 09:45:00,29.7,21.7,30.13,SW,225,6.0,6.0,72,0.00,,,0.00,meteohub,2013-04-04 15:45:00,
2013-04-04 09:51:00,30.6,21.6,30.13,NW,315,4.0,6.0,69,0.00,,,0.00,meteohub,2013-04-04 15:51:00,
2013-04-04 09:56:00,32.2,22.1,30.13,NW,315,2.0,6.0,66,0.00,,,0.00,meteohub,2013-04-04 15:56:00,
2013-04-04 10:01:00,33.4,22.6,30.13,NW,315,7.0,7.0,64,0.00,,,0.00,meteohub,2013-04-04 16:01:00,
2013-04-04 10:06:00,33.4,22.6,30.13,NW,315,7.0,7.0,64,0.00,,,0.00,meteohub,2013-04-04 16:06:00,
2013-04-04 10:12:00,37.4,25.5,30.13,South,180,4.0,8.0,62,0.00,,,0.00,meteohub,2013-04-04 16:12:00,
2013-04-04 10:17:00,38.8,25.3,30.13,North,0,4.0,8.0,58,0.00,,,0.00,meteohub,2013-04-04 16:17:00,
2013-04-04 10:22:00,40.1,24.3,30.13,South,180,5.0,10.0,53,0.00,,,0.00,meteohub,2013-04-04 16:22:00,
2013-04-04 10:28:00,42.3,25.0,30.13,North,0,3.0,10.0,50,0.00,,,0.00,meteohub,2013-04-04 16:28:00,
2013-04-04 10:33:00,43.0,23.5,30.13,West,270,8.0,10.0,46,0.00,,,0.00,meteohub,2013-04-04 16:33:00,
2013-04-04 10:38:00,43.0,21.4,30.13,NW,315,2.0,8.0,42,0.00,,,0.00,meteohub,2013-04-04 16:38:00,
2013-04-04 10:44:00,42.8,21.4,30.13,NNE,23,8.0,8.0,42,0.00,,,0.00,meteohub,2013-04-04 16:44:00,
2013-04-04 10:49:00,41.5,19.6,30.13,NW,315,2.0,8.0,41,0.00,,,0.00,meteohub,2013-04-04 16:49:00,
2013-04-04 10:54:00,42.1,20.7,30.13,North,0,9.0,11.0,42,0.00,,,0.00,meteohub,2013-04-04 16:54:00,
2013-04-04 10:59:00,43.3,21.7,30.13,NW,315,3.0,11.0,42,0.00,,,0.00,meteohub,2013-04-04 16:59:00,
2013-04-04 11:04:00,43.5,20.1,30.13,NW,315,7.0,11.0,39,0.00,,,0.00,meteohub,2013-04-04 17:04:00,
2013-04-04 11:10:00,43.0,17.8,30.13,North,0,3.0,10.0,36,0.00,,,0.00,meteohub,2013-04-04 17:10:00,
2013-04-04 11:15:00,43.2,19.9,30.13,NW,315,5.0,15.0,39,0.00,,,0.00,meteohub,2013-04-04 17:15:00,
2013-04-04 11:20:00,43.5,20.1,30.14,NW,315,6.0,15.0,39,0.00,,,0.00,meteohub,2013-04-04 17:20:00,
2013-04-04 11:25:00,43.0,17.2,30.13,North,0,10.0,11.0,35,0.00,,,0.00,meteohub,2013-04-04 17:25:00,
2013-04-04 11:31:00,42.1,16.3,30.14,North,0,4.0,11.0,35,0.00,,,0.00,meteohub,2013-04-04 17:31:00,
2013-04-04 11:36:00,41.0,14.7,30.14,NE,45,1.0,16.0,34,0.00,,,0.00,meteohub,2013-04-04 17:36:00,
2013-04-04 11:41:00,41.9,18.1,30.14,SW,225,8.0,16.0,38,0.00,,,0.00,meteohub,2013-04-04 17:41:00,
2013-04-04 11:46:00,41.9,17.6,30.14,North,0,6.0,16.0,37,0.00,,,0.00,meteohub,2013-04-04 17:46:00,
2013-04-04 11:52:00,42.1,17.1,30.14,North,0,8.0,14.0,36,0.00,,,0.00,meteohub,2013-04-04 17:52:00,
2013-04-04 11:57:00,42.6,18.1,30.14,NW,315,4.0,14.0,37,0.00,,,0.00,meteohub,2013-04-04 17:57:00,
2013-04-04 12:02:00,43.2,18.7,30.14,SW,225,4.0,10.0,37,0.00,,,0.00,meteohub,2013-04-04 18:02:00,
2013-04-04 12:07:00,43.2,18.7,30.14,SW,225,4.0,10.0,37,0.00,,,0.00,meteohub,2013-04-04 18:07:00,
2013-04-04 12:12:00,44.4,17.8,30.13,South,180,3.0,11.0,34,0.00,,,0.00,meteohub,2013-04-04 18:12:00,
2013-04-04 12:17:00,45.5,17.4,30.14,East,90,11.0,11.0,32,0.00,,,0.00,meteohub,2013-04-04 18:17:00,
2013-04-04 12:22:00,46.2,18.0,30.14,South,180,7.0,11.0,32,0.00,,,0.00,meteohub,2013-04-04 18:22:00,
2013-04-04 12:27:00,47.1,18.7,30.13,SW,225,3.0,11.0,32,0.00,,,0.00,meteohub,2013-04-04 18:27:00,
2013-04-04 12:32:00,47.1,17.2,30.13,South,180,2.0,11.0,30,0.00,,,0.00,meteohub,2013-04-04 18:32:00,
2013-04-04 12:38:00,48.6,19.2,30.13,NW,315,4.0,11.0,31,0.00,,,0.00,meteohub,2013-04-04 18:38:00,
2013-04-04 12:43:00,50.7,20.5,30.13,NW,315,7.0,11.0,30,0.00,,,0.00,meteohub,2013-04-04 18:43:00,
2013-04-04 12:48:00,51.1,18.3,30.13,West,270,6.0,9.0,27,0.00,,,0.00,meteohub,2013-04-04 18:48:00,
2013-04-04 12:53:00,51.1,17.4,30.13,NW,315,6.0,9.0,26,0.00,,,0.00,meteohub,2013-04-04 18:53:00,
2013-04-04 12:59:00,51.3,16.7,30.12,SW,225,4.0,10.0,25,0.00,,,0.00,meteohub,2013-04-04 18:59:00,
2013-04-04 13:04:00,51.4,16.7,30.12,West,270,9.0,10.0,25,0.00,,,0.00,meteohub,2013-04-04 19:04:00,
2013-04-04 13:09:00,52.3,17.6,30.12,NW,315,5.0,10.0,25,0.00,,,0.00,meteohub,2013-04-04 19:09:00,
2013-04-04 13:14:00,52.7,16.0,30.12,South,180,3.0,9.0,23,0.00,,,0.00,meteohub,2013-04-04 19:14:00,
2013-04-04 13:20:00,52.7,16.0,30.11,West,270,3.0,9.0,23,0.00,,,0.00,meteohub,2013-04-04 19:20:00,
2013-04-04 13:25:00,53.6,16.7,30.11,NE,45,7.0,8.0,23,0.00,,,0.00,meteohub,2013-04-04 19:25:00,
2013-04-04 13:30:00,54.7,17.6,30.11,WSW,248,3.0,9.0,23,0.00,,,0.00,meteohub,2013-04-04 19:30:00,
2013-04-04 13:35:00,54.1,15.1,30.12,SE,135,5.0,9.0,21,0.00,,,0.00,meteohub,2013-04-04 19:35:00,
2013-04-04 13:41:00,54.3,15.3,30.12,North,0,3.0,7.0,21,0.00,,,0.00,meteohub,2013-04-04 19:41:00,
2013-04-04 13:46:00,53.8,14.7,30.11,SSW,203,1.0,6.0,21,0.00,,,0.00,meteohub,2013-04-04 19:46:00,
2013-04-04 13:51:00,53.8,14.7,30.12,West,270,4.0,7.0,21,0.00,,,0.00,meteohub,2013-04-04 19:51:00,
2013-04-04 13:56:00,54.1,17.1,30.12,South,180,6.0,12.0,23,0.00,,,0.00,meteohub,2013-04-04 19:56:00,
2013-04-04 14:01:00,54.9,15.6,30.11,NW,315,4.0,12.0,21,0.00,,,0.00,meteohub,2013-04-04 20:01:00,
2013-04-04 14:07:00,54.9,15.6,30.12,NW,315,4.0,12.0,21,0.00,,,0.00,meteohub,2013-04-04 20:07:00,
2013-04-04 14:12:00,52.2,14.4,30.12,South,180,2.0,6.0,22,0.00,,,0.00,meteohub,2013-04-04 20:12:00,
2013-04-04 14:17:00,52.3,15.6,30.11,NW,315,5.0,6.0,23,0.00,,,0.00,meteohub,2013-04-04 20:17:00,
2013-04-04 14:22:00,52.0,14.4,30.12,NW,315,8.0,11.0,22,0.00,,,0.00,meteohub,2013-04-04 20:22:00,
2013-04-04 14:27:00,50.4,14.0,30.11,WSW,248,3.0,11.0,23,0.00,,,0.00,meteohub,2013-04-04 20:27:00,
2013-04-04 14:32:00,50.2,13.8,30.11,SE,135,4.0,11.0,23,0.00,,,0.00,meteohub,2013-04-04 20:32:00,
2013-04-04 14:37:00,50.5,16.0,30.11,East,90,1.0,10.0,25,0.00,,,0.00,meteohub,2013-04-04 20:37:00,
2013-04-04 14:43:00,50.5,15.1,30.11,West,270,2.0,10.0,24,0.00,,,0.00,meteohub,2013-04-04 20:43:00,
2013-04-04 14:48:00,49.6,15.3,30.11,SSW,203,3.0,10.0,25,0.00,,,0.00,meteohub,2013-04-04 20:48:00,
2013-04-04 14:53:00,48.9,15.4,30.11,West,270,4.0,8.0,26,0.00,,,0.00,meteohub,2013-04-04 20:53:00,
2013-04-04 14:58:00,48.2,14.9,30.11,NW,315,5.0,8.0,26,0.00,,,0.00,meteohub,2013-04-04 20:58:00,
2013-04-04 15:03:00,48.4,16.0,30.11,East,90,5.0,8.0,27,0.00,,,0.00,meteohub,2013-04-04 21:03:00,
2013-04-04 15:09:00,48.4,15.1,30.11,SE,135,3.0,8.0,26,0.00,,,0.00,meteohub,2013-04-04 21:09:00,
2013-04-04 15:14:00,48.4,16.0,30.10,NE,45,8.0,8.0,27,0.00,,,0.00,meteohub,2013-04-04 21:14:00,
2013-04-04 15:19:00,48.7,17.1,30.11,West,270,6.0,6.0,28,0.00,,,0.00,meteohub,2013-04-04 21:19:00,
2013-04-04 15:24:00,48.9,15.4,30.11,SE,135,6.0,8.0,26,0.00,,,0.00,meteohub,2013-04-04 21:24:00,
2013-04-04 15:30:00,48.2,15.8,30.11,South,180,4.0,10.0,27,0.00,,,0.00,meteohub,2013-04-04 21:30:00,
2013-04-04 15:35:00,48.0,16.5,30.10,West,270,4.0,10.0,28,0.00,,,0.00,meteohub,2013-04-04 21:35:00,
2013-04-04 15:40:00,47.7,15.3,30.11,SE,135,3.0,10.0,27,0.00,,,0.00,meteohub,2013-04-04 21:40:00,
2013-04-04 15:45:00,47.5,16.9,30.10,WNW,293,4.0,10.0,29,0.00,,,0.00,meteohub,2013-04-04 21:45:00,
2013-04-04 15:51:00,47.8,18.0,30.10,NE,45,2.0,6.0,30,0.00,,,0.00,meteohub,2013-04-04 21:51:00,
2013-04-04 15:56:00,47.8,16.3,30.10,East,90,3.0,6.0,28,0.00,,,0.00,meteohub,2013-04-04 21:56:00,
2013-04-04 16:01:00,47.7,16.2,30.10,North,0,2.0,6.0,28,0.00,,,0.00,meteohub,2013-04-04 22:01:00,
2013-04-04 16:06:00,47.7,16.2,30.10,North,0,2.0,4.0,28,0.00,,,0.00,meteohub,2013-04-04 22:06:00,
2013-04-04 16:12:00,47.5,15.1,30.10,SW,225,2.0,7.0,27,0.00,,,0.00,meteohub,2013-04-04 22:12:00,
2013-04-04 16:17:00,47.3,15.1,30.10,SW,225,4.0,7.0,27,0.00,,,0.00,meteohub,2013-04-04 22:17:00,
2013-04-04 16:22:00,46.6,14.4,30.10,SW,225,4.0,10.0,27,0.00,,,0.00,meteohub,2013-04-04 22:22:00,
2013-04-04 16:27:00,46.4,15.1,30.10,North,0,4.0,10.0,28,0.00,,,0.00,meteohub,2013-04-04 22:27:00,
2013-04-04 16:32:00,46.0,14.7,30.10,North,0,2.0,10.0,28,0.00,,,0.00,meteohub,2013-04-04 22:32:00,
2013-04-04 16:37:00,45.7,13.6,30.10,NW,315,4.0,8.0,27,0.00,,,0.00,meteohub,2013-04-04 22:37:00,
2013-04-04 16:43:00,45.3,12.4,30.10,NW,315,5.0,8.0,26,0.00,,,0.00,meteohub,2013-04-04 22:43:00,
2013-04-04 16:48:00,45.5,15.8,30.10,NW,315,5.0,8.0,30,0.00,,,0.00,meteohub,2013-04-04 22:48:00,
2013-04-04 16:53:00,45.5,15.8,30.10,NW,315,4.0,6.0,30,0.00,,,0.00,meteohub,2013-04-04 22:53:00,
2013-04-04 16:58:00,45.5,15.1,30.10,NW,315,2.0,6.0,29,0.00,,,0.00,meteohub,2013-04-04 22:58:00,
2013-04-04 17:04:00,45.3,14.9,30.10,North,0,4.0,6.0,29,0.00,,,0.00,meteohub,2013-04-04 23:04:00,
2013-04-04 17:09:00,45.3,16.5,30.10,NW,315,4.0,7.0,31,0.00,,,0.00,meteohub,2013-04-04 23:09:00,
2013-04-04 17:14:00,45.5,15.1,30.10,SE,135,2.0,7.0,29,0.00,,,0.00,meteohub,2013-04-04 23:14:00,
2013-04-04 17:19:00,45.3,15.6,30.10,NW,315,4.0,7.0,30,0.00,,,0.00,meteohub,2013-04-04 23:19:00,
2013-04-04 17:24:00,45.1,15.6,30.10,WNW,293,2.0,6.0,30,0.00,,,0.00,meteohub,2013-04-04 23:24:00,
2013-04-04 17:30:00,45.1,15.6,30.10,West,270,4.0,6.0,30,0.00,,,0.00,meteohub,2013-04-04 23:30:00,
2013-04-04 17:35:00,45.1,15.6,30.10,West,270,4.0,8.0,30,0.00,,,0.00,meteohub,2013-04-04 23:35:00,
2013-04-04 17:41:00,44.8,16.0,30.11,West,270,2.0,8.0,31,0.00,,,0.00,meteohub,2013-04-04 23:41:00,
2013-04-04 17:46:00,44.4,15.6,30.11,West,270,2.0,6.0,31,0.00,,,0.00,meteohub,2013-04-04 23:46:00,
2013-04-04 17:52:00,44.1,15.3,30.10,NW,315,2.0,6.0,31,0.00,,,0.00,meteohub,2013-04-04 23:52:00,
2013-04-04 17:57:00,43.9,16.0,30.10,NW,315,4.0,4.0,32,0.00,,,0.00,meteohub,2013-04-04 23:57:00,
2013-04-04 18:02:00,43.7,17.8,30.11,NW,315,5.0,5.0,35,0.00,,,0.00,meteohub,2013-04-05 00:02:00,
2013-04-04 18:07:00,43.2,18.7,30.11,NW,315,2.0,5.0,37,0.00,,,0.00,meteohub,2013-04-05 00:07:00,
2013-04-04 18:12:00,43.0,19.8,30.11,SE,135,3.0,5.0,39,0.00,,,0.00,meteohub,2013-04-05 00:12:00,
2013-04-04 18:18:00,42.6,20.5,30.11,West,270,2.0,5.0,41,0.00,,,0.00,meteohub,2013-04-05 00:18:00,
2013-04-04 18:23:00,42.1,21.2,30.11,SE,135,0.0,5.0,43,0.00,,,0.00,meteohub,2013-04-05 00:23:00,
2013-04-04 18:28:00,41.5,21.7,30.11,SE,135,0.0,3.0,45,0.00,,,0.00,meteohub,2013-04-05 00:28:00,
2013-04-04 18:33:00,41.0,22.3,30.11,NW,315,2.0,2.0,47,0.00,,,0.00,meteohub,2013-04-05 00:33:00,
2013-04-04 18:38:00,40.6,21.9,30.11,West,270,0.0,2.0,47,0.00,,,0.00,meteohub,2013-04-05 00:38:00,
2013-04-04 18:43:00,40.1,21.6,30.11,South,180,1.0,3.0,47,0.00,,,0.00,meteohub,2013-04-05 00:43:00,
2013-04-04 18:49:00,39.6,21.0,30.11,SE,135,1.0,3.0,47,0.00,,,0.00,meteohub,2013-04-05 00:49:00,
2013-04-04 18:54:00,39.2,21.6,30.11,SE,135,1.0,3.0,49,0.00,,,0.00,meteohub,2013-04-05 00:54:00,
2013-04-04 18:59:00,38.7,22.1,30.11,SE,135,4.0,4.0,51,0.00,,,0.00,meteohub,2013-04-05 00:59:00,
2013-04-04 19:05:00,38.1,22.1,30.11,West,270,0.0,4.0,52,0.00,,,0.00,meteohub,2013-04-05 01:05:00,
2013-04-04 19:10:00,37.8,22.6,30.11,SE,135,2.0,4.0,54,0.00,,,0.00,meteohub,2013-04-05 01:10:00,
2013-04-04 19:15:00,37.0,21.0,30.11,SE,135,2.0,4.0,52,0.00,,,0.00,meteohub,2013-04-05 01:15:00,
2013-04-04 19:20:00,36.7,21.6,30.11,SE,135,0.0,2.0,54,0.00,,,0.00,meteohub,2013-04-05 01:20:00,
2013-04-04 19:25:00,36.1,21.6,30.11,SE,135,0.0,2.0,55,0.00,,,0.00,meteohub,2013-04-05 01:25:00,
2013-04-04 19:31:00,35.6,21.4,30.11,SE,135,1.0,2.0,56,0.00,,,0.00,meteohub,2013-04-05 01:31:00,
2013-04-04 19:36:00,35.2,22.3,30.11,SE,135,2.0,2.0,59,0.00,,,0.00,meteohub,2013-04-05 01:36:00,
2013-04-04 19:42:00,34.7,21.9,30.11,SE,135,2.0,2.0,59,0.00,,,0.00,meteohub,2013-04-05 01:42:00,
2013-04-04 19:47:00,34.3,21.0,30.11,SE,135,0.0,2.0,58,0.00,,,0.00,meteohub,2013-04-05 01:47:00,
2013-04-04 19:52:00,34.0,20.8,30.11,SE,135,2.0,2.0,58,0.00,,,0.00,meteohub,2013-04-05 01:52:00,
2013-04-04 19:58:00,33.6,21.2,30.11,SE,135,2.0,2.0,60,0.00,,,0.00,meteohub,2013-04-05 01:58:00,
2013-04-04 20:03:00,33.4,21.0,30.10,SE,135,3.0,3.0,60,0.00,,,0.00,meteohub,2013-04-05 02:03:00,
2013-04-04 20:08:00,32.9,19.8,30.11,SE,135,2.0,3.0,58,0.00,,,0.00,meteohub,2013-04-05 02:08:00,
2013-04-04 20:13:00,32.7,19.9,30.11,SE,135,3.0,3.0,59,0.00,,,0.00,meteohub,2013-04-05 02:13:00,
2013-04-04 20:18:00,32.5,19.8,30.11,SE,135,3.0,4.0,59,0.00,,,0.00,meteohub,2013-04-05 02:18:00,
2013-04-04 20:24:00,32.2,19.4,30.11,SE,135,2.0,4.0,59,0.00,,,0.00,meteohub,2013-04-05 02:24:00,
2013-04-04 20:29:00,32.0,19.2,30.11,SE,135,0.0,4.0,59,0.00,,,0.00,meteohub,2013-04-05 02:29:00,
2013-04-04 20:34:00,32.0,19.8,30.11,SE,135,2.0,3.0,60,0.00,,,0.00,meteohub,2013-04-05 02:34:00,
2013-04-04 20:40:00,31.6,19.8,30.11,SE,135,4.0,4.0,61,0.00,,,0.00,meteohub,2013-04-05 02:40:00,
2013-04-04 20:45:00,31.5,19.6,30.11,SE,135,2.0,4.0,61,0.00,,,0.00,meteohub,2013-04-05 02:45:00,
2013-04-04 20:50:00,31.3,19.8,30.11,SE,135,3.0,4.0,62,0.00,,,0.00,meteohub,2013-04-05 02:50:00,
2013-04-04 20:55:00,31.1,19.9,30.11,SE,135,2.0,4.0,63,0.00,,,0.00,meteohub,2013-04-05 02:55:00,
2013-04-04 21:01:00,31.1,20.3,30.11,SE,135,0.0,3.0,64,0.00,,,0.00,meteohub,2013-04-05 03:01:00,
2013-04-04 21:06:00,30.9,20.1,30.12,SE,135,4.0,4.0,64,0.00,,,0.00,meteohub,2013-04-05 03:06:00,
2013-04-04 21:12:00,30.7,19.9,30.11,SE,135,2.0,4.0,64,0.00,,,0.00,meteohub,2013-04-05 03:12:00,
2013-04-04 21:17:00,30.6,19.8,30.11,SE,135,0.0,4.0,64,0.00,,,0.00,meteohub,2013-04-05 03:17:00,
2013-04-04 21:22:00,30.6,19.8,30.11,SE,135,2.0,4.0,64,0.00,,,0.00,meteohub,2013-04-05 03:22:00,
2013-04-04 21:27:00,30.6,19.8,30.12,SE,135,0.0,2.0,64,0.00,,,0.00,meteohub,2013-04-05 03:27:00,
2013-04-04 21:32:00,30.4,19.2,30.12,SE,135,2.0,2.0,63,0.00,,,0.00,meteohub,2013-04-05 03:32:00,
2013-04-04 21:37:00,30.2,19.0,30.12,SE,135,1.0,2.0,63,0.00,,,0.00,meteohub,2013-04-05 03:37:00,
2013-04-04 21:42:00,29.8,19.2,30.12,SE,135,2.0,2.0,64,0.00,,,0.00,meteohub,2013-04-05 03:42:00,
2013-04-04 21:47:00,29.8,19.2,30.12,SE,135,2.0,2.0,64,0.00,,,0.00,meteohub,2013-04-05 03:47:00,
2013-04-04 21:52:00,29.5,18.9,30.11,South,180,2.0,2.0,64,0.00,,,0.00,meteohub,2013-04-05 03:52:00,
2013-04-04 21:57:00,29.5,19.2,30.12,SE,135,2.0,2.0,65,0.00,,,0.00,meteohub,2013-04-05 03:57:00,
2013-04-04 22:00:00,29.3,19.0,30.12,SE,135,2.0,3.0,65,0.00,,,0.00,meteohub,2013-04-05 04:00:00,
2013-04-04 22:01:00,29.3,19.0,30.11,SE,135,2.0,3.0,65,0.00,,,0.00,meteohub,2013-04-05 04:01:00,
2013-04-04 22:03:00,29.3,19.0,30.12,SE,135,2.0,3.0,65,0.00,,,0.00,meteohub,2013-04-05 04:03:00,
2013-04-04 22:07:00,29.3,19.0,30.12,SE,135,2.0,3.0,65,0.00,,,0.00,meteohub,2013-04-05 04:07:00,
2013-04-04 22:12:00,28.9,18.7,30.12,SE,135,2.0,3.0,65,0.00,,,0.00,meteohub,2013-04-05 04:12:00,
2013-04-04 22:17:00,28.9,18.7,30.11,SE,135,2.0,3.0,65,0.00,,,0.00,meteohub,2013-04-05 04:17:00,
2013-04-04 22:22:00,28.8,18.5,30.12,SE,135,2.0,3.0,65,0.00,,,0.00,meteohub,2013-04-05 04:22:00,
2013-04-04 22:27:00,28.8,18.5,30.11,SE,135,2.0,2.0,65,0.00,,,0.00,meteohub,2013-04-05 04:27:00,
2013-04-04 22:33:00,28.8,18.9,30.12,SE,135,1.0,3.0,66,0.00,,,0.00,meteohub,2013-04-05 04:33:00,
2013-04-04 22:38:00,28.8,18.9,30.12,SE,135,4.0,4.0,66,0.00,,,0.00,meteohub,2013-04-05 04:38:00,
2013-04-04 22:43:00,28.8,18.9,30.11,SE,135,0.0,4.0,66,0.00,,,0.00,meteohub,2013-04-05 04:43:00,
2013-04-04 22:48:00,28.8,18.9,30.11,SE,135,2.0,4.0,66,0.00,,,0.00,meteohub,2013-04-05 04:48:00,
2013-04-04 22:54:00,28.8,18.5,30.11,SE,135,1.0,4.0,65,0.00,,,0.00,meteohub,2013-04-05 04:54:00,
2013-04-04 22:59:00,28.8,18.1,30.11,West,270,2.0,2.0,64,0.00,,,0.00,meteohub,2013-04-05 04:59:00,
2013-04-04 23:04:00,28.8,18.1,30.11,SE,135,2.0,3.0,64,0.00,,,0.00,meteohub,2013-04-05 05:04:00,
2013-04-04 23:09:00,28.9,18.7,30.10,SE,135,2.0,3.0,65,0.00,,,0.00,meteohub,2013-04-05 05:09:00,
2013-04-04 23:14:00,28.9,18.7,30.10,SE,135,2.0,3.0,65,0.00,,,0.00,meteohub,2013-04-05 05:14:00,
2013-04-04 23:20:00,28.8,18.1,30.10,SE,135,2.0,2.0,64,0.00,,,0.00,meteohub,2013-04-05 05:20:00,
2013-04-04 23:25:00,28.8,18.1,30.10,SE,135,2.0,3.0,64,0.00,,,0.00,meteohub,2013-04-05 05:25:00,
2013-04-04 23:30:00,28.8,17.8,30.10,SE,135,2.0,3.0,63,0.00,,,0.00,meteohub,2013-04-05 05:30:00,
2013-04-04 23:35:00,28.8,17.8,30.10,SE,135,2.0,3.0,63,0.00,,,0.00,meteohub,2013-04-05 05:35:00,
2013-04-04 23:41:00,28.8,17.8,30.10,SE,135,2.0,3.0,63,0.00,,,0.00,meteohub,2013-04-05 05:41:00,
2013-04-04 23:46:00,28.8,17.8,30.10,SE,135,2.0,3.0,63,0.00,,,0.00,meteohub,2013-04-05 05:46:00,
2013-04-04 23:52:00,28.6,17.2,30.10,East,90,2.0,3.0,62,0.00,,,0.00,meteohub,2013-04-05 05:52:00,
2013-04-04 23:57:00,28.4,17.1,30.10,SE,135,2.0,3.0,62,0.00,,,0.00,meteohub,2013-04-05 05:57:00,